| time (UTC) | temp F | wind direction | speed knots | gust knots | rain 1hr in | rain 24hr in | rain mn in | humidity % | barometer mb |
| 20260906111543 | 65 | 0 | 0.0 | 0.0 | 0.00 | 0.19 | 0.00 | 93 | 1017.4 |
| 20260906110046 | 65 | 0 | 0.0 | 0.0 | 0.00 | 0.19 | 0.00 | 94 | 1017.2 |
| 20260906104601 | 65 | 0 | 0.0 | 0.0 | 0.00 | 0.19 | 0.00 | 94 | 1017.0 |
| 20260906103044 | 65 | 0 | 0.0 | 0.0 | 0.00 | 0.19 | 0.00 | 94 | 1016.8 |
| 20260906101545 | 65 | 0 | 0.0 | 0.0 | 0.00 | 0.19 | 0.00 | 93 | 1016.7 |
| 20260906100045 | 64 | 0 | 0.0 | 0.0 | 0.00 | 0.19 | 0.00 | 93 | 1016.7 |
| 20260906094546 | 64 | 0 | 0.0 | 0.9 | 0.00 | 0.19 | 0.00 | 93 | 1016.5 |
| 20260906093058 | 64 | 0 | 0.0 | 0.0 | 0.00 | 0.19 | 0.00 | 93 | 1016.4 |
| 20260906091542 | 64 | 0 | 0.0 | 0.0 | 0.00 | 0.19 | 0.00 | 93 | 1016.2 |
| 20260906090050 | 64 | 226 | 0.0 | 1.7 | 0.00 | 0.19 | 0.00 | 93 | 1016.2 |
| 20260906084545 | 63 | 226 | 0.0 | 0.9 | 0.00 | 0.19 | 0.00 | 93 | 1016.4 |
| 20260906083045 | 63 | 0 | 0.0 | 1.7 | 0.00 | 0.19 | 0.00 | 93 | 1016.4 |
| 20260906081544 | 63 | 0 | 0.0 | 1.7 | 0.00 | 0.19 | 0.00 | 93 | 1016.5 |
| 20260906080047 | 63 | 226 | 1.7 | 3.5 | 0.00 | 0.19 | 0.00 | 93 | 1016.5 |
| 20260906074545 | 63 | 226 | 0.9 | 2.6 | 0.00 | 0.19 | 0.00 | 92 | 1016.4 |
| 20260906073047 | 63 | 0 | 0.0 | 1.7 | 0.00 | 0.19 | 0.00 | 92 | 1016.4 |
| 20260906071545 | 63 | 0 | 0.0 | 0.0 | 0.00 | 0.19 | 0.00 | 92 | 1016.5 |
| 20260906070045 | 63 | 0 | 0.0 | 0.9 | 0.00 | 0.19 | 0.00 | 92 | 1016.6 |
| 20260906064544 | 63 | 0 | 0.0 | 1.7 | 0.00 | 0.19 | 0.00 | 92 | 1016.6 |
| 20260906063046 | 63 | 0 | 0.0 | 2.6 | 0.00 | 0.19 | 0.00 | 92 | 1016.8 |
| 20260906061545 | 64 | 226 | 0.0 | 1.7 | 0.00 | 0.19 | 0.00 | 92 | 1016.8 |
| 20260906060044 | 64 | 0 | 0.0 | 0.0 | 0.00 | 0.19 | 0.00 | 92 | 1017.2 |
| 20260906054601 | 64 | 0 | 0.0 | 0.9 | 0.00 | 0.19 | 0.00 | 92 | 1017.2 |
| 20260906053047 | 64 | 0 | 0.0 | 0.0 | 0.00 | 0.19 | 0.00 | 92 | 1017.3 |
| 20260906051545 | 64 | 0 | 0.0 | 1.7 | 0.00 | 0.19 | 0.00 | 91 | 1017.2 |
| 20260906050105 | 64 | 226 | 1.7 | 3.5 | 0.00 | 0.19 | 0.00 | 91 | 1017.3 |
| 20260906044549 | 64 | 0 | 0.0 | 0.9 | 0.00 | 0.19 | 0.00 | 91 | 1017.0 |
| 20260906043044 | 65 | 226 | 0.9 | 2.6 | 0.00 | 0.19 | 0.00 | 90 | 1017.2 |
| 20260906041543 | 65 | 0 | 0.0 | 0.9 | 0.00 | 0.19 | 0.00 | 90 | 1017.2 |
| 20260906040043 | 66 | 0 | 0.0 | 0.9 | 0.00 | 0.19 | 0.00 | 90 | 1017.6 |
| 20260906034546 | 66 | 0 | 0.0 | 0.9 | 0.00 | 0.19 | 0.19 | 90 | 1017.6 |
| 20260906033053 | 66 | 0 | 0.0 | 1.7 | 0.00 | 0.19 | 0.19 | 89 | 1017.7 |
| 20260906031547 | 67 | 226 | 0.9 | 2.6 | 0.00 | 0.19 | 0.19 | 88 | 1017.9 |
| 20260906030044 | 67 | 0 | 0.0 | 0.9 | 0.00 | 0.19 | 0.19 | 88 | 1017.8 |
| 20260906024545 | 67 | 226 | 0.9 | 2.6 | 0.00 | 0.19 | 0.19 | 88 | 1017.7 |
| 20260906023048 | 68 | 226 | 0.9 | 1.7 | 0.00 | 0.19 | 0.19 | 87 | 1017.9 |
| 20260906021552 | 69 | 0 | 0.0 | 0.0 | 0.00 | 0.19 | 0.19 | 87 | 1017.8 |
| 20260906020052 | 69 | 0 | 0.0 | 0.9 | 0.00 | 0.19 | 0.19 | 86 | 1017.9 |
| 20260906014554 | 70 | 226 | 0.0 | 1.7 | 0.00 | 0.19 | 0.19 | 86 | 1017.8 |
| 20260906013049 | 70 | 0 | 0.9 | 5.2 | 0.00 | 0.19 | 0.19 | 85 | 1017.7 |
| 20260906011544 | 70 | 229 | 0.9 | 3.5 | 0.00 | 0.19 | 0.19 | 84 | 1017.4 |
| 20260906010046 | 70 | 231 | 2.6 | 3.5 | 0.00 | 0.19 | 0.19 | 83 | 1017.2 |
| 20260906004548 | 71 | 226 | 0.9 | 3.5 | 0.00 | 0.19 | 0.19 | 82 | 1017.0 |
| 20260906003047 | 71 | 295 | 0.9 | 6.1 | 0.00 | 0.19 | 0.19 | 81 | 1017.0 |
| 20260906001543 | 72 | 283 | 0.0 | 3.5 | 0.00 | 0.19 | 0.19 | 80 | 1016.8 |
| 20260906000046 | 72 | 229 | 1.7 | 4.3 | 0.00 | 0.19 | 0.19 | 78 | 1016.8 |
| 20260905234606 | 73 | 278 | 1.7 | 3.5 | 0.00 | 0.19 | 0.19 | 77 | 1016.8 |
| 20260905233045 | 73 | 309 | 0.9 | 7.0 | 0.00 | 0.19 | 0.19 | 76 | 1016.8 |
| 20260905231547 | 74 | 258 | 1.7 | 5.2 | 0.00 | 0.19 | 0.19 | 75 | 1017.0 |
| 20260905230109 | 75 | 259 | 3.5 | 7.0 | 0.00 | 0.19 | 0.19 | 74 | 1017.1 |
| 20260905224544 | 75 | 238 | 2.6 | 9.6 | 0.00 | 0.19 | 0.19 | 73 | 1017.1 |
| 20260905223044 | 76 | 301 | 3.5 | 7.8 | 0.00 | 0.19 | 0.19 | 73 | 1016.9 |
| 20260905221554 | 76 | 285 | 2.6 | 7.8 | 0.00 | 0.19 | 0.19 | 73 | 1017.0 |
| 20260905220045 | 77 | 290 | 3.5 | 9.6 | 0.00 | 0.19 | 0.19 | 70 | 1016.7 |
| 20260905214544 | 79 | 237 | 6.1 | 10.4 | 0.00 | 0.19 | 0.19 | 67 | 1016.5 |
| 20260905213049 | 79 | 341 | 1.7 | 7.0 | 0.00 | 0.19 | 0.19 | 67 | 1016.3 |
| 20260905211551 | 79 | 343 | 3.5 | 9.6 | 0.00 | 0.19 | 0.19 | 68 | 1016.4 |
| 20260905210044 | 79 | 299 | 3.5 | 7.8 | 0.00 | 0.19 | 0.19 | 68 | 1016.2 |
| 20260905204542 | 79 | 319 | 4.3 | 9.6 | 0.00 | 0.19 | 0.19 | 69 | 1016.2 |
| 20260905203054 | 79 | 262 | 4.3 | 9.6 | 0.00 | 0.19 | 0.19 | 69 | 1016.4 |
| 20260905201545 | 79 | 307 | 3.5 | 8.7 | 0.00 | 0.19 | 0.19 | 66 | 1016.5 |
| 20260905200046 | 78 | 291 | 7.8 | 13.0 | 0.00 | 0.19 | 0.19 | 64 | 1016.5 |
| 20260905194545 | 78 | 322 | 5.2 | 13.0 | 0.00 | 0.19 | 0.19 | 69 | 1016.6 |
| 20260905193105 | 79 | 322 | 3.5 | 8.7 | 0.00 | 0.19 | 0.19 | 72 | 1017.0 |
| 20260905191545 | 78 | 311 | 6.1 | 10.4 | 0.00 | 0.19 | 0.19 | 69 | 1017.0 |
| 20260905190044 | 77 | 294 | 5.2 | 10.4 | 0.00 | 0.19 | 0.19 | 72 | 1017.3 |
| 20260905184551 | 76 | 283 | 5.2 | 9.6 | 0.00 | 0.19 | 0.19 | 72 | 1017.4 |
| 20260905183051 | 76 | 323 | 3.5 | 8.7 | 0.00 | 0.19 | 0.19 | 73 | 1017.4 |
| 20260905181544 | 76 | 254 | 2.6 | 7.8 | 0.00 | 0.19 | 0.19 | 75 | 1017.6 |
| 20260905180049 | 76 | 291 | 5.2 | 7.8 | 0.00 | 0.19 | 0.19 | 77 | 1017.8 |
| 20260905174548 | 74 | 337 | 1.7 | 6.1 | 0.00 | 0.19 | 0.19 | 86 | 1018.2 |
| 20260905173044 | 72 | 266 | 4.3 | 8.7 | 0.00 | 0.19 | 0.19 | 85 | 1018.4 |
| 20260905171545 | 72 | 297 | 3.5 | 7.8 | 0.00 | 0.19 | 0.19 | 86 | 1018.2 |
| 20260905170046 | 72 | 249 | 4.3 | 8.7 | 0.00 | 0.19 | 0.19 | 84 | 1018.4 |
| 20260905164545 | 72 | 208 | 1.7 | 8.7 | 0.00 | 0.19 | 0.19 | 88 | 1018.2 |
| 20260905163045 | 71 | 204 | 6.1 | 9.6 | 0.00 | 0.19 | 0.19 | 88 | 1018.2 |
| 20260905161546 | 71 | 167 | 0.9 | 6.1 | 0.00 | 0.19 | 0.19 | 90 | 1018.1 |
| 20260905160044 | 69 | 194 | 2.6 | 7.0 | 0.00 | 0.19 | 0.19 | 90 | 1018.5 |
| 20260905154555 | 69 | 175 | 1.7 | 4.3 | 0.00 | 0.19 | 0.19 | 89 | 1019.3 |
| 20260905153044 | 70 | 348 | 0.9 | 6.1 | 0.00 | 0.19 | 0.19 | 89 | 1019.7 |
| 20260905151549 | 70 | 280 | 3.5 | 6.1 | 0.00 | 0.19 | 0.19 | 89 | 1019.8 |
| 20260905150044 | 70 | 0 | 0.9 | 5.2 | 0.05 | 0.19 | 0.19 | 91 | 1020.0 |
| 20260905144545 | 68 | 280 | 0.9 | 3.5 | 0.19 | 0.19 | 0.19 | 92 | 1019.8 |
| 20260905143042 | 67 | 0 | 0.9 | 7.0 | 0.19 | 0.19 | 0.19 | 90 | 1019.8 |
| 20260905141547 | 68 | 18 | 1.7 | 7.0 | 0.19 | 0.19 | 0.19 | 89 | 1020.0 |
| 20260905140044 | 69 | 68 | 5.2 | 16.5 | 0.14 | 0.14 | 0.14 | 88 | 1020.1 |
| 20260905134547 | 71 | 247 | 4.3 | 8.7 | 0.00 | 0.00 | 0.00 | 89 | 1019.0 |
| 20260905133045 | 72 | 243 | 3.5 | 8.7 | 0.00 | 0.00 | 0.00 | 89 | 1018.8 |
| 20260905131543 | 72 | 274 | 3.5 | 7.8 | 0.00 | 0.00 | 0.00 | 90 | 1018.8 |
| 20260905130043 | 71 | 218 | 5.2 | 9.6 | 0.00 | 0.00 | 0.00 | 90 | 1018.6 |
| 20260905124547 | 71 | 255 | 6.1 | 8.7 | 0.00 | 0.00 | 0.00 | 91 | 1018.6 |
| 20260905123048 | 70 | 227 | 4.3 | 7.8 | 0.00 | 0.00 | 0.00 | 92 | 1018.8 |
| 20260905121543 | 69 | 245 | 2.6 | 6.1 | 0.00 | 0.00 | 0.00 | 93 | 1018.8 |
| 20260905120046 | 68 | 203 | 2.6 | 5.2 | 0.00 | 0.00 | 0.00 | 93 | 1018.6 |
| 20260905114545 | 68 | 201 | 2.6 | 6.1 | 0.00 | 0.00 | 0.00 | 93 | 1018.5 |
| 20260905113056 | 68 | 189 | 1.7 | 4.3 | 0.00 | 0.00 | 0.00 | 93 | 1018.3 |